Time,TemperatureF,DewpointF,PressureIn,WindDirection,WindDirectionDegrees,WindSpeedMPH,WindSpeedGustMPH,Humidity,HourlyPrecipIn,Conditions,Clouds,dailyrainin,SoftwareType,DateUTC
2013-08-13 00:01:00,71.9,65.0,29.83,SW,223,7.0,7.0,79,0.00,RA,,0.00,WeatherDisplay:10.37,2013-08-13 04:01:00,
2013-08-13 00:03:00,72.0,65.1,29.83,SW,227,9.2,9.2,79,0.00,RA,,0.00,WeatherDisplay:10.37,2013-08-13 04:03:00,
2013-08-13 00:08:00,72.1,65.2,29.83,SSW,213,9.2,9.2,79,0.00,RA,,0.00,WeatherDisplay:10.37,2013-08-13 04:08:00,
2013-08-13 00:13:00,72.1,65.2,29.83,WSW,242,8.0,8.0,79,0.00,CLR,,0.00,WeatherDisplay:10.37,2013-08-13 04:13:00,
2013-08-13 00:18:00,72.1,65.2,29.83,SSW,209,8.1,8.1,79,0.00,CLR,,0.00,WeatherDisplay:10.37,2013-08-13 04:18:00,
2013-08-13 00:23:00,72.1,65.2,29.82,SSW,210,9.2,9.2,79,0.00,CLR,,0.00,WeatherDisplay:10.37,2013-08-13 04:23:00,
2013-08-13 00:28:00,72.1,64.9,29.82,WSW,238,9.2,9.2,78,0.00,CLR,,0.00,WeatherDisplay:10.37,2013-08-13 04:28:00,
2013-08-13 00:33:00,72.1,64.9,29.82,SW,230,10.4,10.4,78,0.00,CLR,,0.00,WeatherDisplay:10.37,2013-08-13 04:33:00,
2013-08-13 00:38:00,72.1,64.9,29.82,SW,227,8.1,8.1,78,0.00,CLR,,0.00,WeatherDisplay:10.37,2013-08-13 04:38:00,
2013-08-13 00:43:00,72.1,64.9,29.81,SW,222,10.4,10.4,78,0.00,CLR,,0.00,WeatherDisplay:10.37,2013-08-13 04:43:00,
2013-08-13 00:48:00,72.0,65.1,29.81,SW,221,7.0,7.0,79,0.00,CLR,,0.00,WeatherDisplay:10.37,2013-08-13 04:48:00,
2013-08-13 00:53:00,71.9,65.0,29.81,SW,228,8.1,8.1,79,0.00,CLR,,0.00,WeatherDisplay:10.37,2013-08-13 04:53:00,
2013-08-13 00:58:00,72.0,65.1,29.80,WSW,238,7.0,7.0,79,0.00,CLR,,0.00,WeatherDisplay:10.37,2013-08-13 04:58:00,
2013-08-13 01:03:00,72.0,65.1,29.79,SW,217,7.0,7.0,79,0.00,CLR,,0.00,WeatherDisplay:10.37,2013-08-13 05:03:00,
2013-08-13 01:08:00,71.9,65.0,29.79,SSW,193,7.0,7.0,79,0.00,CLR,,0.00,WeatherDisplay:10.37,2013-08-13 05:08:00,
2013-08-13 01:13:00,71.9,65.0,29.79,SW,236,8.1,8.1,79,0.00,CLR,,0.00,WeatherDisplay:10.37,2013-08-13 05:13:00,
2013-08-13 01:18:00,71.7,64.8,29.78,SSW,207,6.0,6.0,79,0.00,CLR,,0.00,WeatherDisplay:10.37,2013-08-13 05:18:00,
2013-08-13 01:23:00,71.6,64.7,29.78,South,188,9.2,9.2,79,0.00,CLR,,0.00,WeatherDisplay:10.37,2013-08-13 05:23:00,
2013-08-13 01:28:00,71.4,64.9,29.78,SSW,195,10.4,10.4,80,0.00,CLR,,0.00,WeatherDisplay:10.37,2013-08-13 05:28:00,
2013-08-13 01:33:00,71.3,64.8,29.78,SSW,197,10.4,10.4,80,0.00,CLR,,0.00,WeatherDisplay:10.37,2013-08-13 05:33:00,
2013-08-13 01:38:00,71.1,65.0,29.77,SSW,193,11.5,11.5,81,0.00,CLR,,0.00,WeatherDisplay:10.37,2013-08-13 05:38:00,
2013-08-13 01:43:00,70.9,64.8,29.77,SSW,206,7.0,7.0,81,0.00,CLR,,0.00,WeatherDisplay:10.37,2013-08-13 05:43:00,
2013-08-13 01:48:00,70.8,64.7,29.78,SW,235,8.1,8.1,81,0.00,CLR,,0.00,WeatherDisplay:10.37,2013-08-13 05:48:00,
2013-08-13 01:53:00,70.8,65.0,29.78,WSW,250,6.0,6.0,82,0.00,CLR,,0.00,WeatherDisplay:10.37,2013-08-13 05:53:00,
2013-08-13 01:58:00,70.8,65.0,29.78,WSW,240,4.0,4.0,82,0.00,CLR,,0.00,WeatherDisplay:10.37,2013-08-13 05:58:00,
2013-08-13 02:03:00,70.8,65.0,29.78,West,261,6.0,6.0,82,0.00,CLR,,0.00,WeatherDisplay:10.37,2013-08-13 06:03:00,
2013-08-13 02:08:00,70.9,65.1,29.78,SW,236,9.0,9.0,82,0.00,CLR,,0.00,WeatherDisplay:10.37,2013-08-13 06:08:00,
2013-08-13 02:13:00,70.9,65.1,29.78,West,267,5.0,5.0,82,0.00,CLR,,0.00,WeatherDisplay:10.37,2013-08-13 06:13:00,
2013-08-13 02:18:00,70.8,65.0,29.78,West,259,5.0,5.0,82,0.00,CLR,,0.00,WeatherDisplay:10.37,2013-08-13 06:18:00,
2013-08-13 02:23:00,70.6,64.8,29.77,SW,233,7.0,7.0,82,0.00,CLR,,0.00,WeatherDisplay:10.37,2013-08-13 06:23:00,
2013-08-13 02:28:00,70.5,64.7,29.77,WSW,239,8.0,8.0,82,0.00,CLR,,0.00,WeatherDisplay:10.37,2013-08-13 06:28:00,
2013-08-13 02:33:00,70.3,64.5,29.77,SW,232,8.1,8.1,82,0.00,CLR,,0.00,WeatherDisplay:10.37,2013-08-13 06:33:00,
2013-08-13 02:38:00,70.2,64.8,29.77,SW,230,8.0,8.0,83,0.00,CLR,,0.00,WeatherDisplay:10.37,2013-08-13 06:38:00,
2013-08-13 02:43:00,70.1,64.7,29.77,SW,227,10.0,10.0,83,0.00,CLR,,0.00,WeatherDisplay:10.37,2013-08-13 06:43:00,
2013-08-13 02:48:00,70.0,64.6,29.77,West,271,11.5,11.5,83,0.00,CLR,,0.00,WeatherDisplay:10.37,2013-08-13 06:48:00,
2013-08-13 02:53:00,69.9,64.5,29.77,SW,236,11.5,11.5,83,0.00,CLR,,0.00,WeatherDisplay:10.37,2013-08-13 06:53:00,
2013-08-13 02:58:00,69.8,64.4,29.77,SW,222,9.2,9.2,83,0.00,CLR,,0.00,WeatherDisplay:10.37,2013-08-13 06:58:00,
2013-08-13 03:03:00,69.7,64.6,29.77,SW,227,7.0,7.0,84,0.00,CLR,,0.00,WeatherDisplay:10.37,2013-08-13 07:03:00,
2013-08-13 03:08:00,69.6,64.5,29.77,WSW,237,7.0,7.0,84,0.00,CLR,,0.00,WeatherDisplay:10.37,2013-08-13 07:08:00,
2013-08-13 03:13:00,69.5,64.5,29.77,WSW,252,7.0,7.0,84,0.00,CLR,,0.00,WeatherDisplay:10.37,2013-08-13 07:13:00,
2013-08-13 03:18:00,69.4,64.4,29.77,SW,227,6.9,6.9,84,0.00,CLR,,0.00,WeatherDisplay:10.37,2013-08-13 07:18:00,
2013-08-13 03:23:00,69.2,64.2,29.78,SW,229,6.0,6.0,84,0.01,RA,,0.01,WeatherDisplay:10.37,2013-08-13 07:23:00,
2013-08-13 03:28:00,69.1,64.4,29.78,SW,216,6.0,6.0,85,0.01,RA,,0.01,WeatherDisplay:10.37,2013-08-13 07:28:00,
2013-08-13 03:33:00,69.0,64.3,29.78,SW,227,5.0,5.0,85,0.01,CLR,,0.01,WeatherDisplay:10.37,2013-08-13 07:33:00,
2013-08-13 03:38:00,68.9,64.2,29.77,SW,234,5.0,5.0,85,0.01,CLR,,0.01,WeatherDisplay:10.37,2013-08-13 07:38:00,
2013-08-13 03:43:00,68.9,64.2,29.77,SW,220,5.0,5.0,85,0.01,CLR,,0.01,WeatherDisplay:10.37,2013-08-13 07:43:00,
2013-08-13 03:48:00,68.8,64.1,29.77,SW,229,4.0,4.0,85,0.01,CLR,,0.01,WeatherDisplay:10.37,2013-08-13 07:48:00,
2013-08-13 03:53:00,68.7,64.3,29.77,SW,226,5.0,5.0,86,0.01,CLR,,0.01,WeatherDisplay:10.37,2013-08-13 07:53:00,
2013-08-13 03:58:00,68.6,64.2,29.77,SW,224,4.0,4.0,86,0.01,CLR,,0.01,WeatherDisplay:10.37,2013-08-13 07:58:00,
2013-08-13 04:03:00,68.6,64.2,29.77,SW,215,3.5,3.5,86,0.01,CLR,,0.01,WeatherDisplay:10.37,2013-08-13 08:03:00,
2013-08-13 04:08:00,68.6,64.2,29.77,SW,223,4.0,4.0,86,0.01,CLR,,0.01,WeatherDisplay:10.37,2013-08-13 08:08:00,
2013-08-13 04:13:00,68.5,64.1,29.77,SW,222,3.5,3.5,86,0.01,CLR,,0.01,WeatherDisplay:10.37,2013-08-13 08:13:00,
2013-08-13 04:18:00,68.4,64.0,29.77,SW,229,4.0,4.0,86,0.01,CLR,,0.01,WeatherDisplay:10.37,2013-08-13 08:18:00,
2013-08-13 04:23:00,68.4,64.0,29.77,SW,223,5.0,5.0,86,0.00,CLR,,0.01,WeatherDisplay:10.37,2013-08-13 08:23:00,
2013-08-13 04:28:00,68.3,63.9,29.76,SW,229,6.0,6.0,86,0.00,CLR,,0.01,WeatherDisplay:10.37,2013-08-13 08:28:00,
2013-08-13 04:33:00,68.3,64.3,29.76,SW,236,5.8,5.8,87,0.00,CLR,,0.01,WeatherDisplay:10.37,2013-08-13 08:33:00,
2013-08-13 04:38:00,68.3,64.3,29.76,SW,228,4.0,4.0,87,0.00,CLR,,0.01,WeatherDisplay:10.37,2013-08-13 08:38:00,
2013-08-13 04:43:00,68.2,64.2,29.76,SW,223,3.5,3.5,87,0.00,CLR,,0.01,WeatherDisplay:10.37,2013-08-13 08:43:00,
2013-08-13 04:48:00,68.2,64.2,29.76,SSW,206,6.0,6.0,87,0.00,CLR,,0.01,WeatherDisplay:10.37,2013-08-13 08:48:00,
2013-08-13 04:53:00,68.1,64.1,29.76,SW,234,6.0,6.0,87,0.00,CLR,,0.01,WeatherDisplay:10.37,2013-08-13 08:53:00,
2013-08-13 04:58:00,67.9,63.9,29.76,SW,221,10.0,10.0,87,0.00,CLR,,0.01,WeatherDisplay:10.37,2013-08-13 08:58:00,
2013-08-13 05:03:00,67.8,63.8,29.76,SW,236,9.2,9.2,87,0.00,CLR,,0.01,WeatherDisplay:10.37,2013-08-13 09:03:00,
2013-08-13 05:08:00,67.7,63.7,29.76,WSW,252,6.0,6.0,87,0.00,CLR,,0.01,WeatherDisplay:10.37,2013-08-13 09:08:00,
2013-08-13 05:13:00,67.6,63.6,29.76,WSW,239,8.1,8.1,87,0.00,CLR,,0.01,WeatherDisplay:10.37,2013-08-13 09:13:00,
2013-08-13 05:18:00,67.6,63.6,29.76,SW,236,8.1,8.1,87,0.00,CLR,,0.01,WeatherDisplay:10.37,2013-08-13 09:18:00,
2013-08-13 05:23:00,67.4,63.4,29.76,SSW,207,11.5,11.5,87,0.00,CLR,,0.01,WeatherDisplay:10.37,2013-08-13 09:23:00,
2013-08-13 05:28:00,67.2,63.2,29.75,SSW,208,11.5,11.5,87,0.00,CLR,,0.01,WeatherDisplay:10.37,2013-08-13 09:28:00,
2013-08-13 05:33:00,67.0,63.0,29.75,West,261,11.5,11.5,87,0.00,CLR,,0.01,WeatherDisplay:10.37,2013-08-13 09:33:00,
2013-08-13 05:38:00,66.9,62.9,29.75,SW,222,10.4,10.4,87,0.00,CLR,,0.01,WeatherDisplay:10.37,2013-08-13 09:38:00,
2013-08-13 05:43:00,66.7,62.7,29.75,SSW,206,11.0,11.0,87,0.00,CLR,,0.01,WeatherDisplay:10.37,2013-08-13 09:43:00,
2013-08-13 05:48:00,66.7,62.7,29.75,SW,236,9.2,9.2,87,0.00,CLR,,0.01,WeatherDisplay:10.37,2013-08-13 09:48:00,
2013-08-13 05:53:00,66.6,62.6,29.75,SW,234,10.4,10.4,87,0.00,CLR,,0.01,WeatherDisplay:10.37,2013-08-13 09:53:00,
2013-08-13 05:58:00,66.5,62.5,29.75,SW,224,8.1,8.1,87,0.00,CLR,,0.01,WeatherDisplay:10.37,2013-08-13 09:58:00,
2013-08-13 06:03:00,66.5,62.5,29.75,SW,227,9.0,9.0,87,0.00,CLR,,0.01,WeatherDisplay:10.37,2013-08-13 10:03:00,
2013-08-13 06:08:00,66.5,62.5,29.75,SW,225,10.4,10.4,87,0.00,CLR,,0.01,WeatherDisplay:10.37,2013-08-13 10:08:00,
2013-08-13 06:13:00,66.5,62.5,29.75,West,267,10.4,10.4,87,0.00,CLR,,0.01,WeatherDisplay:10.37,2013-08-13 10:13:00,
2013-08-13 06:18:00,66.4,62.4,29.75,South,191,11.5,11.5,87,0.00,CLR,,0.01,WeatherDisplay:10.37,2013-08-13 10:18:00,
2013-08-13 06:23:00,66.3,62.3,29.75,SW,217,8.0,8.0,87,0.00,CLR,,0.01,WeatherDisplay:10.37,2013-08-13 10:23:00,
2013-08-13 06:28:00,66.3,62.3,29.75,SW,229,8.1,8.1,87,0.00,CLR,,0.01,WeatherDisplay:10.37,2013-08-13 10:28:00,
2013-08-13 06:33:00,66.3,62.3,29.75,WSW,257,11.0,11.0,87,0.00,CLR,,0.01,WeatherDisplay:10.37,2013-08-13 10:33:00,
2013-08-13 06:38:00,66.3,62.3,29.75,WSW,237,9.2,9.2,87,0.00,CLR,,0.01,WeatherDisplay:10.37,2013-08-13 10:38:00,
2013-08-13 06:43:00,66.3,62.3,29.75,WSW,257,10.0,10.0,87,0.00,CLR,,0.01,WeatherDisplay:10.37,2013-08-13 10:43:00,
2013-08-13 06:48:00,66.3,62.3,29.76,West,261,9.2,9.2,87,0.00,CLR,,0.01,WeatherDisplay:10.37,2013-08-13 10:48:00,
2013-08-13 06:53:00,66.3,62.3,29.76,SW,230,9.2,9.2,87,0.00,CLR,,0.01,WeatherDisplay:10.37,2013-08-13 10:53:00,
2013-08-13 06:58:00,66.3,62.3,29.76,West,264,9.0,9.0,87,0.00,CLR,,0.01,WeatherDisplay:10.37,2013-08-13 10:58:00,
2013-08-13 07:03:00,66.4,62.4,29.76,WSW,258,10.0,10.0,87,0.00,CLR,,0.01,WeatherDisplay:10.37,2013-08-13 11:03:00,
2013-08-13 07:08:00,66.4,62.4,29.76,SW,220,8.1,8.1,87,0.00,CLR,,0.01,WeatherDisplay:10.37,2013-08-13 11:08:00,
2013-08-13 07:13:00,66.4,62.4,29.76,WSW,240,10.4,10.4,87,0.00,CLR,,0.01,WeatherDisplay:10.37,2013-08-13 11:13:00,
2013-08-13 07:18:00,66.4,62.4,29.76,WSW,245,11.5,11.5,87,0.00,CLR,,0.01,WeatherDisplay:10.37,2013-08-13 11:18:00,
2013-08-13 07:23:00,66.4,62.4,29.76,SW,227,9.2,9.2,87,0.00,CLR,,0.01,WeatherDisplay:10.37,2013-08-13 11:23:00,
2013-08-13 07:28:00,66.4,62.4,29.76,WSW,238,8.1,8.1,87,0.00,CLR,,0.01,WeatherDisplay:10.37,2013-08-13 11:28:00,
2013-08-13 07:33:00,66.5,62.5,29.76,SW,229,8.1,8.1,87,0.00,CLR,,0.01,WeatherDisplay:10.37,2013-08-13 11:33:00,
2013-08-13 07:38:00,66.5,62.5,29.77,WSW,242,9.0,9.0,87,0.00,CLR,,0.01,WeatherDisplay:10.37,2013-08-13 11:38:00,
2013-08-13 07:43:00,66.6,62.6,29.76,WSW,246,11.0,11.0,87,0.00,CLR,,0.01,WeatherDisplay:10.37,2013-08-13 11:43:00,
2013-08-13 07:49:00,66.7,62.7,29.76,SW,226,10.4,10.4,87,0.00,CLR,,0.01,WeatherDisplay:10.37,2013-08-13 11:49:00,
2013-08-13 07:54:00,66.8,62.8,29.76,West,261,9.2,9.2,87,0.00,CLR,,0.01,WeatherDisplay:10.37,2013-08-13 11:54:00,
2013-08-13 07:59:00,66.8,62.8,29.76,SW,236,12.0,12.0,87,0.00,CLR,,0.01,WeatherDisplay:10.37,2013-08-13 11:59:00,
2013-08-13 08:04:00,66.8,62.8,29.77,SW,236,10.4,10.4,87,0.00,CLR,,0.01,WeatherDisplay:10.37,2013-08-13 12:04:00,
2013-08-13 08:09:00,66.8,62.8,29.76,SW,232,10.4,10.4,87,0.00,CLR,,0.01,WeatherDisplay:10.37,2013-08-13 12:09:00,
2013-08-13 08:14:00,66.9,62.9,29.77,WSW,252,10.4,10.4,87,0.00,CLR,,0.01,WeatherDisplay:10.37,2013-08-13 12:14:00,
2013-08-13 08:19:00,66.9,62.9,29.77,West,263,8.1,8.1,87,0.00,CLR,,0.01,WeatherDisplay:10.37,2013-08-13 12:19:00,
2013-08-13 08:24:00,67.0,63.0,29.77,West,269,9.2,9.2,87,0.00,CLR,,0.01,WeatherDisplay:10.37,2013-08-13 12:24:00,
2013-08-13 08:29:00,67.1,63.1,29.77,SW,229,9.2,9.2,87,0.00,CLR,,0.01,WeatherDisplay:10.37,2013-08-13 12:29:00,
2013-08-13 08:34:00,67.2,63.2,29.77,SW,236,8.1,8.1,87,0.00,CLR,,0.01,WeatherDisplay:10.37,2013-08-13 12:34:00,
2013-08-13 08:39:00,67.3,63.3,29.77,SW,236,7.0,7.0,87,0.00,CLR,,0.01,WeatherDisplay:10.37,2013-08-13 12:39:00,
2013-08-13 08:44:00,67.5,63.5,29.77,WSW,254,8.1,8.1,87,0.00,CLR,,0.01,WeatherDisplay:10.37,2013-08-13 12:44:00,
2013-08-13 08:49:00,67.8,63.8,29.77,West,263,6.0,6.0,87,0.00,CLR,,0.01,WeatherDisplay:10.37,2013-08-13 12:49:00,
2013-08-13 08:54:00,68.1,64.1,29.77,West,267,5.0,5.0,87,0.00,CLR,,0.01,WeatherDisplay:10.37,2013-08-13 12:54:00,
2013-08-13 08:59:00,68.2,64.2,29.77,WSW,251,6.0,6.0,87,0.00,CLR,,0.01,WeatherDisplay:10.37,2013-08-13 12:59:00,
2013-08-13 09:04:00,68.3,63.9,29.76,WSW,237,8.1,8.1,86,0.00,CLR,,0.01,WeatherDisplay:10.37,2013-08-13 13:04:00,
2013-08-13 09:09:00,68.6,64.2,29.77,SW,220,6.9,6.9,86,0.00,CLR,,0.01,WeatherDisplay:10.37,2013-08-13 13:09:00,
2013-08-13 09:14:00,68.8,64.4,29.77,West,264,6.0,6.0,86,0.00,CLR,,0.01,WeatherDisplay:10.37,2013-08-13 13:14:00,
2013-08-13 09:19:00,68.9,64.5,29.77,SW,232,6.0,6.0,86,0.00,CLR,,0.01,WeatherDisplay:10.37,2013-08-13 13:19:00,
2013-08-13 09:24:00,69.4,65.0,29.77,West,259,9.2,9.2,86,0.00,CLR,,0.01,WeatherDisplay:10.37,2013-08-13 13:24:00,
2013-08-13 09:29:00,69.7,65.3,29.77,SW,232,11.0,11.0,86,0.00,CLR,,0.01,WeatherDisplay:10.37,2013-08-13 13:29:00,
2013-08-13 09:34:00,70.0,65.3,29.76,WSW,241,8.1,8.1,85,0.00,CLR,,0.01,WeatherDisplay:10.37,2013-08-13 13:34:00,
2013-08-13 09:39:00,70.0,64.9,29.77,SW,221,10.0,10.0,84,0.00,CLR,,0.01,WeatherDisplay:10.37,2013-08-13 13:39:00,
2013-08-13 09:44:00,70.0,64.9,29.77,WSW,257,8.0,8.0,84,0.00,CLR,,0.01,WeatherDisplay:10.37,2013-08-13 13:44:00,
2013-08-13 09:49:00,70.2,65.1,29.77,West,273,7.0,7.0,84,0.00,CLR,,0.01,WeatherDisplay:10.37,2013-08-13 13:49:00,
2013-08-13 09:54:00,70.1,65.0,29.77,WSW,255,6.0,6.0,84,0.00,CLR,,0.01,WeatherDisplay:10.37,2013-08-13 13:54:00,
2013-08-13 09:59:00,70.1,65.0,29.78,SW,236,7.0,7.0,84,0.00,CLR,,0.01,WeatherDisplay:10.37,2013-08-13 13:59:00,
2013-08-13 10:04:00,70.2,65.1,29.77,SW,229,8.0,8.0,84,0.00,CLR,,0.01,WeatherDisplay:10.37,2013-08-13 14:04:00,
2013-08-13 10:09:00,71.0,65.9,29.77,SW,217,11.0,11.0,84,0.00,CLR,,0.01,WeatherDisplay:10.37,2013-08-13 14:09:00,
2013-08-13 10:14:00,71.5,66.1,29.77,West,259,11.5,11.5,83,0.00,CLR,,0.01,WeatherDisplay:10.37,2013-08-13 14:14:00,
2013-08-13 10:19:00,71.9,66.1,29.77,WSW,252,11.5,11.5,82,0.00,CLR,,0.01,WeatherDisplay:10.37,2013-08-13 14:19:00,
2013-08-13 10:24:00,72.5,66.3,29.77,SW,234,9.2,9.2,81,0.00,CLR,,0.01,WeatherDisplay:10.37,2013-08-13 14:24:00,
2013-08-13 10:29:00,72.1,65.9,29.77,WSW,255,12.0,12.0,81,0.00,CLR,,0.01,WeatherDisplay:10.37,2013-08-13 14:29:00,
2013-08-13 10:34:00,72.8,66.6,29.77,West,264,10.4,10.4,81,0.00,CLR,,0.01,WeatherDisplay:10.37,2013-08-13 14:34:00,
2013-08-13 10:39:00,72.5,66.0,29.76,SW,229,12.0,12.0,80,0.00,CLR,,0.01,WeatherDisplay:10.37,2013-08-13 14:39:00,
2013-08-13 10:44:00,73.0,66.8,29.77,West,264,9.2,9.2,81,0.00,CLR,,0.01,WeatherDisplay:10.37,2013-08-13 14:44:00,
2013-08-13 10:49:00,73.1,66.6,29.77,WSW,248,12.0,12.0,80,0.00,CLR,,0.01,WeatherDisplay:10.37,2013-08-13 14:49:00,
2013-08-13 10:54:00,72.9,66.4,29.77,West,260,10.4,10.4,80,0.00,CLR,,0.01,WeatherDisplay:10.37,2013-08-13 14:54:00,
2013-08-13 10:59:00,73.3,66.4,29.77,WSW,250,13.0,13.0,79,0.00,CLR,,0.01,WeatherDisplay:10.37,2013-08-13 14:59:00,
2013-08-13 11:04:00,73.9,66.6,29.77,West,271,9.2,9.2,78,0.00,CLR,,0.01,WeatherDisplay:10.37,2013-08-13 15:04:00,
2013-08-13 11:09:00,72.9,66.0,29.77,West,265,8.0,8.0,79,0.01,RA,,0.02,WeatherDisplay:10.37,2013-08-13 15:09:00,
2013-08-13 11:14:00,71.3,64.8,29.78,WNW,298,1.2,0.0,80,0.02,RA,,0.03,WeatherDisplay:10.37,2013-08-13 15:14:00,
2013-08-13 11:19:00,70.5,64.7,29.78,West,259,4.0,4.0,82,0.02,RA,,0.03,WeatherDisplay:10.37,2013-08-13 15:19:00,
2013-08-13 11:24:00,70.3,64.9,29.78,West,264,5.0,5.0,83,0.03,RA,,0.04,WeatherDisplay:10.37,2013-08-13 15:24:00,
2013-08-13 11:29:00,71.9,67.1,29.78,WSW,246,5.8,5.8,85,0.03,RA,,0.04,WeatherDisplay:10.37,2013-08-13 15:29:00,
2013-08-13 11:34:00,73.2,68.1,29.78,SW,236,8.1,8.1,84,0.03,,,0.04,WeatherDisplay:10.37,2013-08-13 15:34:00,
2013-08-13 11:39:00,73.8,68.0,29.78,WSW,255,11.5,11.5,82,0.03,CLR,,0.04,WeatherDisplay:10.37,2013-08-13 15:39:00,
2013-08-13 11:44:00,74.2,67.6,29.78,WNW,292,11.0,11.0,80,0.03,CLR,,0.04,WeatherDisplay:10.37,2013-08-13 15:44:00,
2013-08-13 11:49:00,72.4,64.4,29.78,WNW,286,3.5,3.5,76,0.03,CLR,,0.04,WeatherDisplay:10.37,2013-08-13 15:49:00,
2013-08-13 11:54:00,71.3,63.3,29.78,NNE,19,3.5,3.5,76,0.03,CLR,,0.04,WeatherDisplay:10.37,2013-08-13 15:54:00,
2013-08-13 11:59:00,71.3,64.1,29.78,NNE,17,3.0,3.0,78,0.03,CLR,,0.04,WeatherDisplay:10.37,2013-08-13 15:59:00,
2013-08-13 12:04:00,72.6,63.8,29.78,NNW,333,3.5,3.5,74,0.03,CLR,,0.04,WeatherDisplay:10.37,2013-08-13 16:04:00,
2013-08-13 12:09:00,73.5,63.9,29.78,NW,324,6.9,6.9,72,0.02,CLR,,0.04,WeatherDisplay:10.37,2013-08-13 16:09:00,
2013-08-13 12:14:00,74.0,63.6,29.78,SSW,205,2.0,2.0,70,0.01,CLR,,0.04,WeatherDisplay:10.37,2013-08-13 16:14:00,
2013-08-13 12:19:00,74.4,63.6,29.78,NW,326,1.2,1.2,69,0.01,CLR,,0.04,WeatherDisplay:10.37,2013-08-13 16:19:00,
2013-08-13 12:24:00,75.1,63.4,29.78,NNW,337,4.6,4.6,67,0.00,CLR,,0.04,WeatherDisplay:10.37,2013-08-13 16:24:00,
2013-08-13 12:29:00,74.7,63.0,29.78,North,10,4.0,4.0,67,0.00,CLR,,0.04,WeatherDisplay:10.37,2013-08-13 16:29:00,
2013-08-13 12:34:00,74.4,61.9,29.78,NE,35,5.0,5.0,65,0.00,CLR,,0.04,WeatherDisplay:10.37,2013-08-13 16:34:00,
2013-08-13 12:39:00,74.5,62.0,29.78,NNW,345,4.6,4.6,65,0.00,CLR,,0.04,WeatherDisplay:10.37,2013-08-13 16:39:00,
2013-08-13 12:44:00,74.8,63.1,29.78,North,5,8.1,8.1,67,0.00,CLR,,0.04,WeatherDisplay:10.37,2013-08-13 16:44:00,
2013-08-13 12:49:00,74.9,62.3,29.77,North,355,3.0,3.0,65,0.00,CLR,,0.04,WeatherDisplay:10.37,2013-08-13 16:49:00,
2013-08-13 12:54:00,75.0,62.4,29.77,North,5,3.0,3.0,65,0.00,CLR,,0.04,WeatherDisplay:10.37,2013-08-13 16:54:00,
2013-08-13 12:59:00,75.5,63.3,29.78,NNE,26,4.0,4.0,66,0.00,CLR,,0.04,WeatherDisplay:10.37,2013-08-13 16:59:00,
2013-08-13 13:04:00,75.5,62.0,29.78,NNE,32,7.0,7.0,63,0.00,CLR,,0.04,WeatherDisplay:10.37,2013-08-13 17:04:00,
2013-08-13 13:12:00,74.6,62.9,29.77,WNW,291,4.0,4.0,67,0.00,CLR,,0.04,WeatherDisplay:10.37,2013-08-13 17:12:00,
2013-08-13 13:17:00,75.0,62.0,29.77,North,355,2.3,2.3,64,0.00,CLR,,0.04,WeatherDisplay:10.37,2013-08-13 17:17:00,
2013-08-13 13:22:00,75.1,61.6,29.77,NNW,337,1.2,0.0,63,0.00,CLR,,0.04,WeatherDisplay:10.37,2013-08-13 17:22:00,
2013-08-13 13:27:00,75.5,62.0,29.77,NNE,15,5.0,5.0,63,0.00,CLR,,0.04,WeatherDisplay:10.37,2013-08-13 17:27:00,
2013-08-13 13:32:00,75.7,62.2,29.77,NNW,329,3.5,3.5,63,0.00,CLR,,0.04,WeatherDisplay:10.37,2013-08-13 17:32:00,
2013-08-13 13:37:00,76.1,63.9,29.77,NNW,342,5.8,5.8,66,0.00,CLR,,0.04,WeatherDisplay:10.37,2013-08-13 17:37:00,
2013-08-13 13:42:00,76.4,63.3,29.77,NNE,12,2.3,2.3,64,0.00,CLR,,0.04,WeatherDisplay:10.37,2013-08-13 17:42:00,
2013-08-13 13:47:00,75.4,61.9,29.77,NNE,20,5.0,5.0,63,0.00,CLR,,0.04,WeatherDisplay:10.37,2013-08-13 17:47:00,
2013-08-13 13:52:00,74.8,62.2,29.77,NW,325,1.2,1.2,65,0.00,CLR,,0.04,WeatherDisplay:10.37,2013-08-13 17:52:00,
2013-08-13 13:57:00,75.4,61.9,29.77,WNW,284,4.0,4.0,63,0.00,CLR,,0.04,WeatherDisplay:10.37,2013-08-13 17:57:00,
2013-08-13 14:02:00,76.1,62.6,29.77,West,277,3.5,3.5,63,0.00,CLR,,0.04,WeatherDisplay:10.37,2013-08-13 18:02:00,
2013-08-13 14:07:00,75.6,62.1,29.77,North,5,6.0,6.0,63,0.00,CLR,,0.04,WeatherDisplay:10.37,2013-08-13 18:07:00,
2013-08-13 14:12:00,74.9,61.5,29.77,NNE,18,3.5,3.5,63,0.00,CLR,,0.04,WeatherDisplay:10.37,2013-08-13 18:12:00,
2013-08-13 14:17:00,74.6,62.5,29.78,North,360,8.1,8.1,66,0.00,CLR,,0.04,WeatherDisplay:10.37,2013-08-13 18:17:00,
2013-08-13 14:22:00,74.7,62.1,29.78,NNW,331,4.0,4.0,65,0.00,CLR,,0.04,WeatherDisplay:10.37,2013-08-13 18:22:00,
2013-08-13 14:27:00,74.8,61.8,29.78,North,350,3.5,3.5,64,0.00,CLR,,0.04,WeatherDisplay:10.37,2013-08-13 18:27:00,
2013-08-13 14:32:00,74.7,62.1,29.78,NNE,13,8.0,8.0,65,0.00,CLR,,0.04,WeatherDisplay:10.37,2013-08-13 18:32:00,
2013-08-13 14:37:00,74.1,61.6,29.78,NNE,18,9.2,9.2,65,0.00,CLR,,0.04,WeatherDisplay:10.37,2013-08-13 18:37:00,
2013-08-13 14:42:00,73.4,61.3,29.78,North,9,7.0,7.0,66,0.00,CLR,,0.04,WeatherDisplay:10.37,2013-08-13 18:42:00,
2013-08-13 14:47:00,73.4,61.8,29.79,NNE,24,3.5,3.5,67,0.00,CLR,,0.04,WeatherDisplay:10.37,2013-08-13 18:47:00,
2013-08-13 14:52:00,73.3,61.3,29.78,NNE,24,4.0,4.0,66,0.00,CLR,,0.04,WeatherDisplay:10.37,2013-08-13 18:52:00,
2013-08-13 14:57:00,73.4,62.2,29.79,NNE,22,2.0,2.0,68,0.00,CLR,,0.04,WeatherDisplay:10.37,2013-08-13 18:57:00,
2013-08-13 15:02:00,73.9,61.4,29.79,North,360,9.2,9.2,65,0.00,CLR,,0.04,WeatherDisplay:10.37,2013-08-13 19:02:00,
2013-08-13 15:07:00,73.0,60.1,29.79,NNE,14,4.0,4.0,64,0.00,CLR,,0.04,WeatherDisplay:10.37,2013-08-13 19:07:00,
2013-08-13 15:12:00,72.7,60.7,29.78,NNE,18,5.8,5.8,66,0.00,CLR,,0.04,WeatherDisplay:10.37,2013-08-13 19:12:00,
2013-08-13 15:17:00,72.9,60.4,29.78,NNE,24,3.5,0.0,65,0.00,CLR,,0.04,WeatherDisplay:10.37,2013-08-13 19:17:00,
2013-08-13 15:22:00,72.9,60.4,29.78,NNE,15,1.2,1.2,65,0.00,CLR,,0.04,WeatherDisplay:10.37,2013-08-13 19:22:00,
2013-08-13 15:27:00,73.8,62.2,29.78,NNE,33,5.0,5.0,67,0.00,CLR,,0.04,WeatherDisplay:10.37,2013-08-13 19:27:00,
2013-08-13 15:32:00,75.0,62.0,29.78,NNW,338,4.0,4.0,64,0.00,CLR,,0.04,WeatherDisplay:10.37,2013-08-13 19:32:00,
2013-08-13 15:37:00,75.1,60.3,29.77,NNE,29,5.8,5.8,60,0.00,CLR,,0.04,WeatherDisplay:10.37,2013-08-13 19:37:00,
2013-08-13 15:42:00,75.1,61.6,29.78,NNE,15,9.0,9.0,63,0.00,CLR,,0.04,WeatherDisplay:10.37,2013-08-13 19:42:00,
2013-08-13 15:47:00,75.1,61.2,29.78,NNW,344,13.8,13.8,62,0.00,CLR,,0.04,WeatherDisplay:10.37,2013-08-13 19:47:00,
2013-08-13 15:52:00,74.8,60.4,29.77,North,5,7.0,7.0,61,0.00,CLR,,0.04,WeatherDisplay:10.37,2013-08-13 19:52:00,
2013-08-13 15:57:00,74.7,60.4,29.77,NNE,24,7.0,7.0,61,0.00,CLR,,0.04,WeatherDisplay:10.37,2013-08-13 19:57:00,
2013-08-13 16:02:00,74.9,61.0,29.77,North,360,5.8,5.8,62,0.00,CLR,,0.04,WeatherDisplay:10.37,2013-08-13 20:02:00,
2013-08-13 16:07:00,75.4,60.1,29.77,NNE,30,2.3,2.3,59,0.00,CLR,,0.04,WeatherDisplay:10.37,2013-08-13 20:07:00,
2013-08-13 16:12:00,75.1,59.8,29.77,West,276,3.5,3.5,59,0.00,CLR,,0.04,WeatherDisplay:10.37,2013-08-13 20:12:00,
2013-08-13 16:17:00,74.6,59.8,29.77,NNW,333,6.9,6.9,60,0.00,CLR,,0.04,WeatherDisplay:10.37,2013-08-13 20:17:00,
2013-08-13 16:22:00,74.4,59.6,29.77,NE,42,3.5,3.5,60,0.00,CLR,,0.04,WeatherDisplay:10.37,2013-08-13 20:22:00,
2013-08-13 16:27:00,74.6,60.3,29.78,NW,321,5.0,5.0,61,0.00,CLR,,0.04,WeatherDisplay:10.37,2013-08-13 20:27:00,
2013-08-13 16:32:00,74.1,59.8,29.78,North,350,9.2,9.2,61,0.00,CLR,,0.04,WeatherDisplay:10.37,2013-08-13 20:32:00,
2013-08-13 16:37:00,73.9,59.1,29.77,NE,40,11.0,11.0,60,0.00,CLR,,0.04,WeatherDisplay:10.37,2013-08-13 20:37:00,
2013-08-13 16:42:00,73.8,59.0,29.78,North,5,8.1,8.1,60,0.00,CLR,,0.04,WeatherDisplay:10.37,2013-08-13 20:42:00,
2013-08-13 16:47:00,73.7,58.9,29.78,North,360,9.2,9.2,60,0.00,CLR,,0.04,WeatherDisplay:10.37,2013-08-13 20:47:00,
2013-08-13 16:52:00,73.3,59.9,29.78,NNW,329,7.0,7.0,63,0.00,CLR,,0.04,WeatherDisplay:10.37,2013-08-13 20:52:00,
2013-08-13 16:57:00,72.8,59.5,29.78,North,10,9.0,9.0,63,0.00,CLR,,0.04,WeatherDisplay:10.37,2013-08-13 20:57:00,
2013-08-13 17:02:00,72.4,59.5,29.79,NE,49,5.0,5.0,64,0.00,CLR,,0.04,WeatherDisplay:10.37,2013-08-13 21:02:00,
2013-08-13 17:07:00,72.5,59.6,29.79,NNW,338,6.0,6.0,64,0.00,CLR,,0.04,WeatherDisplay:10.37,2013-08-13 21:07:00,
2013-08-13 17:12:00,72.8,59.5,29.79,NNE,12,6.0,6.0,63,0.00,CLR,,0.04,WeatherDisplay:10.37,2013-08-13 21:12:00,
2013-08-13 17:17:00,73.0,59.2,29.80,NNE,12,6.9,6.9,62,0.00,CLR,,0.04,WeatherDisplay:10.37,2013-08-13 21:17:00,
2013-08-13 17:22:00,73.0,59.7,29.79,NNE,21,9.0,9.0,63,0.00,CLR,,0.04,WeatherDisplay:10.37,2013-08-13 21:22:00,
2013-08-13 17:27:00,72.7,58.9,29.79,North,355,6.0,6.0,62,0.00,CLR,,0.04,WeatherDisplay:10.37,2013-08-13 21:27:00,
2013-08-13 17:32:00,72.8,59.0,29.79,North,5,3.5,3.5,62,0.00,CLR,,0.04,WeatherDisplay:10.37,2013-08-13 21:32:00,
2013-08-13 17:37:00,72.7,59.4,29.79,NNE,22,7.0,7.0,63,0.00,CLR,,0.04,WeatherDisplay:10.37,2013-08-13 21:37:00,
2013-08-13 17:42:00,72.0,58.7,29.80,NNE,21,10.4,10.4,63,0.00,CLR,,0.04,WeatherDisplay:10.37,2013-08-13 21:42:00,
2013-08-13 17:47:00,71.4,58.6,29.80,NNE,22,11.0,11.0,64,0.00,CLR,,0.04,WeatherDisplay:10.37,2013-08-13 21:47:00,
2013-08-13 17:52:00,71.2,58.4,29.80,North,5,7.0,7.0,64,0.00,CLR,,0.04,WeatherDisplay:10.37,2013-08-13 21:52:00,
2013-08-13 17:57:00,71.1,58.3,29.80,NNE,26,7.0,7.0,64,0.00,CLR,,0.04,WeatherDisplay:10.37,2013-08-13 21:57:00,
2013-08-13 18:02:00,71.3,58.1,29.80,North,9,6.9,6.9,63,0.00,CLR,,0.04,WeatherDisplay:10.37,2013-08-13 22:02:00,
2013-08-13 18:07:00,71.3,57.6,29.80,NE,51,10.0,10.0,62,0.00,CLR,,0.04,WeatherDisplay:10.37,2013-08-13 22:07:00,
2013-08-13 18:12:00,71.1,57.9,29.80,NNE,13,8.1,8.1,63,0.00,CLR,,0.04,WeatherDisplay:10.37,2013-08-13 22:12:00,
2013-08-13 18:17:00,70.7,57.5,29.80,NNE,33,7.0,7.0,63,0.00,CLR,,0.04,WeatherDisplay:10.37,2013-08-13 22:17:00,
2013-08-13 18:22:00,70.4,57.6,29.80,NNE,22,8.0,8.0,64,0.00,CLR,,0.04,WeatherDisplay:10.37,2013-08-13 22:22:00,
2013-08-13 18:27:00,70.3,57.1,29.80,NNE,23,9.0,9.0,63,0.00,CLR,,0.04,WeatherDisplay:10.37,2013-08-13 22:27:00,
2013-08-13 18:32:00,70.2,57.4,29.80,North,351,4.0,4.0,64,0.00,CLR,,0.04,WeatherDisplay:10.37,2013-08-13 22:32:00,
2013-08-13 18:37:00,70.0,57.7,29.81,NNE,25,10.0,10.0,65,0.00,CLR,,0.04,WeatherDisplay:10.37,2013-08-13 22:37:00,
2013-08-13 18:42:00,69.5,57.6,29.81,NE,42,9.2,9.2,66,0.00,CLR,,0.04,WeatherDisplay:10.37,2013-08-13 22:42:00,
2013-08-13 18:47:00,69.1,57.7,29.81,North,360,1.2,1.2,67,0.00,CLR,,0.04,WeatherDisplay:10.37,2013-08-13 22:47:00,
2013-08-13 18:52:00,68.8,57.8,29.81,NNE,25,9.2,9.2,68,0.00,CLR,,0.04,WeatherDisplay:10.37,2013-08-13 22:52:00,
2013-08-13 18:57:00,68.5,57.5,29.81,North,355,8.1,8.1,68,0.00,CLR,,0.04,WeatherDisplay:10.37,2013-08-13 22:57:00,
2013-08-13 19:02:00,68.2,57.2,29.82,NNE,17,10.4,10.4,68,0.00,CLR,,0.04,WeatherDisplay:10.37,2013-08-13 23:02:00,
2013-08-13 19:07:00,67.9,56.9,29.82,North,360,11.5,11.5,68,0.00,CLR,,0.04,WeatherDisplay:10.37,2013-08-13 23:07:00,
2013-08-13 19:12:00,67.7,56.8,29.82,NNW,340,10.4,10.4,68,0.00,CLR,,0.04,WeatherDisplay:10.37,2013-08-13 23:12:00,
2013-08-13 19:17:00,67.4,56.5,29.82,NNW,344,8.1,8.1,68,0.00,CLR,,0.04,WeatherDisplay:10.37,2013-08-13 23:17:00,
2013-08-13 19:22:00,67.2,56.3,29.83,NNW,329,10.4,10.4,68,0.00,CLR,,0.04,WeatherDisplay:10.37,2013-08-13 23:22:00,
2013-08-13 19:27:00,67.0,56.1,29.83,NE,37,8.1,8.1,68,0.00,CLR,,0.04,WeatherDisplay:10.37,2013-08-13 23:27:00,
2013-08-13 19:32:00,66.8,55.9,29.83,North,5,11.5,11.5,68,0.00,CLR,,0.04,WeatherDisplay:10.37,2013-08-13 23:32:00,
2013-08-13 19:37:00,66.7,55.8,29.84,NNW,344,7.0,7.0,68,0.00,CLR,,0.04,WeatherDisplay:10.37,2013-08-13 23:37:00,
2013-08-13 19:42:00,66.5,55.6,29.84,NNE,19,9.2,9.2,68,0.00,CLR,,0.04,WeatherDisplay:10.37,2013-08-13 23:42:00,
2013-08-13 19:47:00,66.3,55.0,29.84,NNE,20,6.0,6.0,67,0.00,CLR,,0.04,WeatherDisplay:10.37,2013-08-13 23:47:00,
2013-08-13 19:52:00,66.1,54.8,29.84,North,360,10.4,10.4,67,0.00,CLR,,0.04,WeatherDisplay:10.37,2013-08-13 23:52:00,
2013-08-13 19:57:00,65.9,54.6,29.85,North,350,4.0,4.0,67,0.00,CLR,,0.04,WeatherDisplay:10.37,2013-08-13 23:57:00,
2013-08-13 20:02:00,65.8,54.5,29.85,North,11,6.0,6.0,67,0.00,CLR,,0.04,WeatherDisplay:10.37,2013-08-14 00:02:00,
2013-08-13 20:07:00,65.7,54.8,29.85,NNE,14,1.2,1.2,68,0.00,CLR,,0.04,WeatherDisplay:10.37,2013-08-14 00:07:00,
2013-08-13 20:12:00,65.6,54.8,29.85,North,360,6.9,6.9,68,0.00,CLR,,0.04,WeatherDisplay:10.37,2013-08-14 00:12:00,
2013-08-13 20:17:00,65.5,54.2,29.85,North,11,5.0,5.0,67,0.00,CLR,,0.04,WeatherDisplay:10.37,2013-08-14 00:17:00,
2013-08-13 20:22:00,65.3,54.1,29.85,NNW,330,4.0,4.0,67,0.00,CLR,,0.04,WeatherDisplay:10.37,2013-08-14 00:22:00,
2013-08-13 20:27:00,65.2,53.6,29.86,NNE,25,10.4,10.4,66,0.00,CLR,,0.04,WeatherDisplay:10.37,2013-08-14 00:27:00,
2013-08-13 20:32:00,64.9,53.3,29.86,North,360,9.2,9.2,66,0.00,CLR,,0.04,WeatherDisplay:10.37,2013-08-14 00:32:00,
2013-08-13 20:37:00,64.7,53.1,29.86,North,360,10.4,10.4,66,0.00,CLR,,0.04,WeatherDisplay:10.37,2013-08-14 00:37:00,
2013-08-13 20:42:00,64.5,52.9,29.86,NNE,14,5.0,5.0,66,0.00,CLR,,0.04,WeatherDisplay:10.37,2013-08-14 00:42:00,
2013-08-13 20:48:00,64.2,52.2,29.87,NNE,19,7.0,7.0,65,0.00,CLR,,0.04,WeatherDisplay:10.37,2013-08-14 00:48:00,
2013-08-13 20:53:00,64.0,51.6,29.87,North,5,6.0,6.0,64,0.00,CLR,,0.04,WeatherDisplay:10.37,2013-08-14 00:53:00,
2013-08-13 20:58:00,63.7,51.3,29.87,NNW,327,8.1,8.1,64,0.00,CLR,,0.04,WeatherDisplay:10.37,2013-08-14 00:58:00,
2013-08-13 21:03:00,63.6,51.2,29.87,North,355,1.2,1.2,64,0.00,CLR,,0.04,WeatherDisplay:10.37,2013-08-14 01:03:00,
2013-08-13 21:08:00,63.4,51.0,29.88,North,10,6.0,6.0,64,0.00,CLR,,0.04,WeatherDisplay:10.37,2013-08-14 01:08:00,
2013-08-13 21:13:00,63.2,50.8,29.88,NNW,333,5.8,5.8,64,0.00,CLR,,0.04,WeatherDisplay:10.37,2013-08-14 01:13:00,
2013-08-13 21:18:00,63.1,50.7,29.88,North,11,5.0,5.0,64,0.00,CLR,,0.04,WeatherDisplay:10.37,2013-08-14 01:18:00,
2013-08-13 21:23:00,62.9,51.0,29.88,North,9,3.5,3.5,65,0.00,CLR,,0.04,WeatherDisplay:10.37,2013-08-14 01:23:00,
2013-08-13 21:28:00,62.7,50.8,29.89,NNE,25,7.0,7.0,65,0.00,CLR,,0.04,WeatherDisplay:10.37,2013-08-14 01:28:00,
2013-08-13 21:33:00,62.4,50.5,29.89,NNE,22,16.1,16.1,65,0.00,CLR,,0.04,WeatherDisplay:10.37,2013-08-14 01:33:00,
2013-08-13 21:38:00,62.3,50.4,29.89,North,9,11.5,11.5,65,0.00,CLR,,0.04,WeatherDisplay:10.37,2013-08-14 01:38:00,
2013-08-13 21:43:00,62.0,49.7,29.89,NNE,13,9.2,9.2,64,0.00,CLR,,0.04,WeatherDisplay:10.37,2013-08-14 01:43:00,
2013-08-13 21:48:00,61.9,49.6,29.90,North,355,6.9,6.9,64,0.00,CLR,,0.04,WeatherDisplay:10.37,2013-08-14 01:48:00,
2013-08-13 21:53:00,61.7,49.4,29.90,NNE,17,5.8,5.8,64,0.00,CLR,,0.04,WeatherDisplay:10.37,2013-08-14 01:53:00,
2013-08-13 21:58:00,61.5,49.2,29.90,NNE,21,7.0,7.0,64,0.00,CLR,,0.04,WeatherDisplay:10.37,2013-08-14 01:58:00,
2013-08-13 22:03:00,61.2,49.3,29.91,NNE,22,7.0,7.0,65,0.00,CLR,,0.04,WeatherDisplay:10.37,2013-08-14 02:03:00,
2013-08-13 22:08:00,61.1,49.2,29.91,NNE,14,9.2,9.2,65,0.00,CLR,,0.04,WeatherDisplay:10.37,2013-08-14 02:08:00,
2013-08-13 22:13:00,60.9,48.6,29.91,NNE,17,8.1,8.1,64,0.00,CLR,,0.04,WeatherDisplay:10.37,2013-08-14 02:13:00,
2013-08-13 22:18:00,60.8,48.5,29.91,North,11,7.0,7.0,64,0.00,CLR,,0.04,WeatherDisplay:10.37,2013-08-14 02:18:00,
2013-08-13 22:23:00,60.6,48.8,29.91,NNE,18,7.0,7.0,65,0.00,CLR,,0.04,WeatherDisplay:10.37,2013-08-14 02:23:00,
2013-08-13 22:28:00,60.5,48.3,29.91,NNE,12,8.1,8.1,64,0.00,CLR,,0.04,WeatherDisplay:10.37,2013-08-14 02:28:00,
2013-08-13 22:33:00,60.4,48.2,29.92,NNE,16,5.0,5.0,64,0.00,CLR,,0.04,WeatherDisplay:10.37,2013-08-14 02:33:00,
2013-08-13 22:38:00,60.1,48.7,29.92,NE,40,5.0,5.0,66,0.00,CLR,,0.04,WeatherDisplay:10.37,2013-08-14 02:38:00,
2013-08-13 22:43:00,59.9,48.5,29.92,NNE,22,3.5,3.5,66,0.00,CLR,,0.04,WeatherDisplay:10.37,2013-08-14 02:43:00,
2013-08-13 22:48:00,59.6,48.2,29.92,NNE,24,4.0,4.0,66,0.00,CLR,,0.04,WeatherDisplay:10.37,2013-08-14 02:48:00,
2013-08-13 22:53:00,59.4,48.4,29.92,NNE,25,5.0,5.0,67,0.00,CLR,,0.04,WeatherDisplay:10.37,2013-08-14 02:53:00,
2013-08-13 22:58:00,59.1,48.5,29.92,North,360,7.0,7.0,68,0.00,CLR,,0.04,WeatherDisplay:10.37,2013-08-14 02:58:00,
2013-08-13 23:03:00,59.0,48.4,29.92,NNE,18,5.0,5.0,68,0.00,CLR,,0.04,WeatherDisplay:10.37,2013-08-14 03:03:00,
2013-08-13 23:08:00,59.0,48.4,29.92,NNE,28,5.8,5.8,68,0.00,CLR,,0.04,WeatherDisplay:10.37,2013-08-14 03:08:00,
2013-08-13 23:13:00,59.0,48.8,29.93,NNE,25,5.8,5.8,69,0.00,CLR,,0.04,WeatherDisplay:10.37,2013-08-14 03:13:00,
2013-08-13 23:18:00,59.0,48.8,29.93,NNE,24,4.0,4.0,69,0.00,CLR,,0.04,WeatherDisplay:10.37,2013-08-14 03:18:00,
2013-08-13 23:23:00,58.9,48.7,29.93,NNE,30,6.0,6.0,69,0.00,CLR,,0.04,WeatherDisplay:10.37,2013-08-14 03:23:00,
2013-08-13 23:28:00,58.6,48.5,29.93,NNE,25,4.6,4.6,69,0.00,CLR,,0.04,WeatherDisplay:10.37,2013-08-14 03:28:00,
2013-08-13 23:33:00,58.5,48.4,29.93,NNE,20,4.6,4.6,69,0.00,CLR,,0.04,WeatherDisplay:10.37,2013-08-14 03:33:00,
2013-08-13 23:38:00,58.5,48.4,29.93,NNE,20,5.0,5.0,69,0.00,CLR,,0.04,WeatherDisplay:10.37,2013-08-14 03:38:00,
2013-08-13 23:43:00,58.4,48.7,29.93,NNE,22,6.0,6.0,70,0.00,CLR,,0.04,WeatherDisplay:10.37,2013-08-14 03:43:00,
2013-08-13 23:48:00,58.2,48.5,29.93,NNE,28,5.0,5.0,70,0.00,CLR,,0.04,WeatherDisplay:10.37,2013-08-14 03:48:00,
2013-08-13 23:53:00,58.0,48.6,29.93,NNE,24,4.0,4.0,71,0.00,CLR,,0.04,WeatherDisplay:10.37,2013-08-14 03:53:00,
2013-08-13 23:58:00,57.8,48.5,29.93,NNE,24,2.0,2.0,71,0.00,CLR,,0.04,WeatherDisplay:10.37,2013-08-14 03:58:00,